Location: Sternwarte Stuttgart
(48.7670°N, 9.1830°E)
Time: 13:44:17
(UTC+02:00)

Daily predictions for brighter satellites

Satellite Brightness Start Highest point End
(mag) Time Altitude Azimuth Time Altitude Azimuth Time Altitude Azimuth
Cosmos 1536 3.7 20:40:33 10° SSW 20:44:30 57° WNW 20:48:30 10° N
ATLAS CENTAUR R/B 3.4 20:40:00 10° WSW 20:44:42 39° NW 20:49:16 10° NNE
Cosmos 1455 Rocket 3.0 20:41:41 10° S 20:45:58 63° E 20:50:18 10° NNE
Cosmos 1602 Rocket 3.8 20:42:21 10° N 20:46:44 51° ENE 20:51:03 10° SSE
Cosmos 1934 Rocket 4.0 20:41:04 10° S 20:47:11 77° E 20:53:28 10° NNE
Cosmos 1697 Rocket 3.7 20:45:04 10° SSE 20:49:26 23° ESE 20:53:48 10° NE
Cosmos 1515 4.3 20:47:54 10° N 20:51:33 39° ENE 20:55:09 10° SE
RESURS DK-1 3.2 20:48:48 10° NNW 20:52:40 36° NE 20:56:31 10° ESE
Cosmos 2084 3.3 20:48:54 10° NW 20:52:55 75° NE 20:57:07 10° SE
Meteor 1-29 4.1 20:52:08 10° N 20:55:28 49° WNW 20:58:50 10° SSW
Cosmos 2278 3.7 20:50:16 10° SSW 20:55:52 64° ESE 21:01:31 10° NNE
Cosmos 220 Rocket 3.9 20:55:12 10° NNW 20:59:28 84° ENE 21:03:41 10° SSE
Cosmos 1743 4.1 21:06:15 10° SE 21:09:12 21° E 21:12:10 10° NE
Cosmos 2369 3.7 21:04:13 10° SSW 21:09:52 73° ESE 21:15:35 10° NNE
Cosmos 1980 Rocket 3.3 21:08:07 10° SSE 21:12:23 22° E 21:16:40 10° NE
Cosmos 2208 Rocket 4.2 21:07:35 10° SSW 21:12:56 82° WNW 21:18:24 10° NNE
CZ-4 DEB 2.7 21:12:08 10° SSE 21:15:14 65° ENE 21:18:22 10° N
Resurs 01 Rocket 4.1 21:11:54 10° SSW 21:15:28 23° W 21:19:04 10° NW
Cosmos 2298 Rocket 4.0 21:10:43 10° NNW 21:16:04 85° ENE 21:21:24 10° SSE
ALOS 3.3 21:12:04 10° S 21:16:35 48° W 21:21:08 10° NNW
Cosmos 972 Rocket 4.5 21:17:33 10° NNW 21:23:21 70° ENE 21:29:46 10° SSE
Cosmos 1937 Rocket 3.6 21:18:28 10° NNW 21:23:44 68° ENE 21:28:29 13° SSE
Envisat 3.1 21:19:43 10° SSE 21:24:43 61° ENE 21:29:44 10° N
Iridium 4 Rocket 3.4 21:20:09 10° N 21:25:23 88° E 21:30:06 10° S
Meteor 1-12 Rocket 4.3 21:24:01 10° S 21:29:46 89° WNW 21:35:41 10° NNE
Cosmos 1975 2.9 21:26:52 10° S 21:30:58 85° W 21:35:07 10° N
Cosmos 2173 Rocket 4.3 21:24:53 10° SSE 21:30:58 49° E 21:37:02 10° NNE
H-2A R/B 4.5 21:29:11 10° SSW 21:32:44 33° W 21:36:22 10° NNW
Cosmos 2263 Rocket 3.7 21:30:50 10° N 21:35:09 22° NE 21:38:44 13° E
Lacrosse 5 rocket 3.2 21:32:47 10° W 21:35:32 20° SW 21:38:14 10° S
Cosmos 1605 Rocket 4.4 21:29:22 10° SSW 21:35:41 69° WNW 21:41:57 10° N
Cosmos 990 Rocket 4.1 21:31:26 10° NNW 21:36:42 66° ENE 21:40:35 18° SE
Cosmos 2227 Rocket 3.7 21:31:44 10° NW 21:36:47 33° WSW 21:41:46 10° SSW
H-2A R/B 3.7 21:35:17 13° E 21:37:32 18° ENE 21:40:47 10° NNE
Cosmos 1656 3.6 21:32:42 10° SSW 21:38:17 71° ESE 21:43:49 10° NNE
Meteor 1-21 4.4 21:36:17 10° N 21:42:01 61° ENE 21:46:29 17° SSE
Cosmos 2150 Rocket 4.2 21:37:07 10° NNW 21:42:15 68° WSW 21:47:09 11° S
Cosmos 2100 Rocket 4.0 21:37:56 10° S 21:44:09 66° E 21:50:18 10° NNE
Cosmos 2322 Rocket 3.7 21:45:37 16° E 21:45:37 16° E 21:48:28 10° ENE
Cosmos 1726 Rocket 4.2 21:46:08 23° SE 21:48:09 36° E 21:52:12 10° NNE
Cosmos 2061 Rocket 4.0 21:44:12 10° S 21:50:26 67° E 21:56:38 10° NNE
USA 186 4.5 21:48:28 10° SW 21:50:32 17° W 21:52:30 10° NW
Cosmos 2098 Rocket 4.4 21:46:25 16° SSE 21:51:22 39° E 21:56:35 10° NNE
Cosmos 2297 Rocket 3.6 21:47:03 10° NW 21:52:08 35° WSW 21:57:11 10° S
ERS-1 Rocket 3.4 21:48:39 10° S 21:53:37 61° WSW 21:58:37 10° NNW
SPOT 1/Viking Rocket 4.0 21:53:31 24° SE 21:56:18 47° ENE 22:01:17 10° N
Lacrosse 5 2.4 21:51:23 10° WNW 21:56:18 50° SW 21:59:17 22° SSE
Cosmos 1666 3.5 21:56:34 30° ESE 21:56:53 31° E 22:00:16 10° NNE
Cosmos 1825 Rocket 3.5 21:53:34 10° N 21:58:03 89° WSW 22:01:04 20° S
Cosmos 2227 4.2 21:52:55 10° NNW 21:58:44 80° ENE 22:02:13 25° SSE
USA 215 3.5 21:53:51 18° E 21:58:47 64° NNE 22:05:15 10° NW
Cosmos 1898 Rocket 4.5 21:56:54 10° NNW 22:01:58 45° WSW 22:06:52 10° S
SL-08 RB Rocket 4.4 22:01:05 28° ESE 22:02:47 38° ENE 22:07:05 10° N
Cosmos 1939 Rocket 3.8 22:02:07 12° S 22:05:47 49° W 22:09:52 10° NNW
SPOT 5 2.8 22:02:46 22° SSE 22:06:04 88° ENE 22:10:52 10° NNW
Cosmos 1763 Rocket 3.6 22:02:17 14° S 22:06:25 49° ESE 22:11:19 10° NNE
Cosmos 1500 4.1 22:04:11 10° SSW 22:07:50 48° WNW 22:11:32 10° N
Cosmos 1953 Rocket 3.5 22:03:41 10° N 22:08:10 86° E 22:10:33 27° S
Cosmos 1125 Rocket 3.8 22:03:08 10° NNW 22:08:15 53° ENE 22:10:26 32° ESE
Tiangong 1 3.0 22:09:44 10° WSW 22:11:30 19° SSW 22:11:30 19° SSW
MetOp-A 4.1 22:09:12 23° SSE 22:12:38 89° WSW 22:18:02 10° NNW
H-2A R/B 2.3 22:12:12 23° S 22:14:40 61° WSW 22:18:48 10° NNW
Cosmos 1340 3.0 22:11:40 10° NNW 22:15:26 62° W 22:17:12 29° S
USA 245 4.5 22:12:07 26° SSE 22:15:52 74° ENE 22:22:11 10° N
Cosmos 1459 Rocket 4.0 22:10:50 10° SSW 22:16:54 79° W 22:23:04 10° N
Cosmos 1725 Rocket 4.1 22:14:21 25° SSE 22:17:52 55° E 22:23:58 10° NNE
Landsat 7 4.4 22:20:04 34° ESE 22:21:15 41° ENE 22:25:43 10° N
Cosmos 468 Rocket 4.3 22:16:46 10° SSW 22:21:51 66° WNW 22:26:59 10° NNE
YAOGAN 6 2.7 22:20:52 42° S 22:22:00 76° WSW 22:25:44 10° NNW
SL-19 R/B 4.2 22:18:35 10° NNE 22:24:01 54° ESE 22:26:07 34° SSE
Cosmos 1758 Rocket 3.7 22:22:36 10° NNW 22:26:59 71° W 22:28:47 34° S
deb Chang Zheng 4 3.8 22:22:47 10° NNE 22:27:16 75° WNW 22:31:01 14° SSW
Cosmos 2228 3.2 22:27:13 47° ESE 22:27:24 48° E 22:31:33 10° NNE
Cosmos 841 Rocket 3.4 22:25:03 20° S 22:28:41 67° ESE 22:33:53 10° NNE
Cosmos 405 Rocket 3.3 22:25:42 10° N 22:29:08 40° ENE 22:29:08 40° ENE
RESURS DK-1 4.1 22:27:06 10° NW 22:30:38 27° WSW 22:32:39 18° SSW
GP-B 4.4 22:27:03 10° NNE 22:30:24 26° ENE 22:30:24 26° ENE
Cosmos 1814 Rocket 4.4 22:26:48 10° SSW 22:32:06 65° WNW 22:37:23 10° NNE
Cosmos 1697 Rocket 3.1 22:27:19 10° SW 22:32:56 64° WNW 22:38:34 10° NNE
CZ-4 R/B 4.3 22:29:48 10° NNE 22:34:12 40° E 22:34:12 40° E
PSLV R/B 3.8 22:36:21 48° WSW 22:36:24 48° W 22:39:23 10° NNW
Terra 2.4 22:35:52 38° E 22:36:34 41° ENE 22:41:03 10° N
CZ-4C R/B 4.0 22:36:46 44° E 22:37:13 46° ENE 22:41:26 10° N
SL-16 R/B 2.6 22:40:53 40° ESE 22:40:53 40° ESE 22:46:07 10° NE
NOAA 11 4.2 22:40:38 37° S 22:42:54 81° WSW 22:48:25 10° NNW
Cosmos 2233 Rocket 4.1 22:41:34 41° SE 22:43:20 54° E 22:49:24 10° NNE
Cosmos 1743 4.3 22:41:19 11° SW 22:44:51 35° WNW 22:48:29 10° N
Cosmos 540 Rocket 4.1 22:46:25 37° E 22:46:25 37° E 22:50:29 10° NE
Cosmos 1844 Rocket 4.5 22:43:31 10° N 22:47:38 20° NE 22:49:54 16° ENE
CZ-4 SHROUD 4.4 22:49:04 37° W 22:49:04 37° W 22:51:48 10° NNW
ASTEX 1 4.0 22:46:02 10° N 22:50:57 56° WNW 22:54:07 21° SSW
ARGOS 3.3 22:48:57 39° S 22:51:00 71° WSW 22:56:25 10° NNW
Cosmos 372 Rocket 3.8 22:49:24 10° NNW 22:54:33 78° ENE 22:55:25 61° SE
Cosmos 2058 Rocket 3.4 22:53:16 36° SSW 22:54:57 65° WNW 22:59:29 10° N
Cosmos 1980 Rocket 2.5 22:50:12 10° SW 22:55:51 68° WNW 23:01:35 10° NNE
BREEZE-M TANK 4.5 22:51:13 10° W 22:56:07 20° SW 22:56:48 19° SW
Cosmos 2360 Rocket 3.9 22:58:52 18° ENE 22:58:52 18° ENE 23:01:02 10° NE
Spot 4 4.1 23:00:22 49° ENE 23:00:33 50° ENE 23:05:11 10° N
BREEZE-M DEB (TANK) 3.9 22:48:04 10° WNW 23:07:04 67° SSW 23:08:47 49° SSE
DELTA 2 DEB (DPAF) 4.0 23:07:56 85° SSW 23:08:03 87° W 23:12:34 10° NNW
Meteor 2-5 Rocket 3.7 23:03:59 10° N 23:09:58 78° ENE 23:11:03 60° SE
Cosmos 1375 Rocket 4.5 23:11:05 48° S 23:12:49 64° ESE 23:19:21 10° NE
CARTOSAT-1 3.5 23:13:13 80° N 23:13:13 80° N 23:17:21 10° NNW
H-2A R/B 1.9 23:15:56 69° SSW 23:16:26 76° WSW 23:21:23 10° NNW
Cosmos 1707 3.6 23:15:39 10° N 23:18:33 46° N 23:18:33 46° N
Cosmos 2263 Rocket 2.0 23:14:13 10° NNW 23:19:49 84° WSW 23:20:25 71° S
CZ-4B R/B 3.6 23:15:33 10° N 23:20:16 65° WNW 23:21:17 51° SW
Cosmos 1464 Rocket 4.1 23:27:20 55° ESE 23:27:41 56° E 23:33:52 10° NNE
Cosmos 2322 Rocket 2.1 23:27:23 62° SSW 23:28:24 88° WNW 23:34:05 10° NNE
Meteor 1-24 Rocket 3.8 23:24:13 10° N 23:30:17 69° ENE 23:30:48 66° ESE
Cosmos 1812 Rocket 4.0 23:35:29 58° N 23:35:29 58° N 23:39:04 10° N
GEOS 3 Rocket 3.7 23:32:13 10° NE 23:36:33 62° ENE 23:36:33 62° ENE
Nadezhda 4 Rocket 4.4 23:34:09 10° N 23:40:16 48° ENE 23:40:39 47° E
Cosmos 783 Rocket 4.5 23:40:50 78° W 23:41:00 80° WNW 23:46:19 10° NNE
USA 215 3.4 23:41:12 53° SSW 23:41:54 56° SW 23:48:20 10° WNW
Lacrosse 4 Rocket 4.2 23:49:21 11° NE 23:49:21 11° NE 23:49:29 10° NE
COSMOS 2428 4.3 23:55:02 22° ENE 23:55:02 22° ENE 23:57:33 10° NE
CZ-4B R/B 4.4 23:57:08 13° NNE 23:57:08 13° NNE 23:57:54 10° NNE
